Location: Theydon Bois
(51.6750°N, 0.1050°E)
Time: 06:56:25
(UTC+00:00)

Envisat - Pass Details

Date: 15 December 2019
Orbit: 764 x 766 km, 98.1° (Epoch: 27 January)

Event Time Altitude Azimuth Distance (km) Brightness Sun altitude
Rises 19:33:01 0° 223° (SW) 3,226 6.7 -33.2°
Reaches altitude 10° 19:36:54 10° 253° (WSW) 2,307 6.2 -33.8°
Maximum altitude 19:38:53 12° 276° (W) 2,161 6.1 -34.1°
Drops below altitude 10° 19:40:52 10° 300° (WNW) 2,314 6.2 -34.4°
Sets 19:44:48 0° 330° (NNW) 3,247 6.7 -35.0°
